ECHOSTAR 19 (41893 NORAD) Tracking and Keplerian Element Data

This shows tracking and keplerian element data for the satellite.

Feedback or suggestion? Click here.




ElementValue
Catalog41893
NameECHOSTAR 19
Epoch Orbit699
Epoch Day323.10832187
Epoch Year2018
RAAN292.7416
Inclination0.0155
Eccentricity0.0001585
Argument of Perigee302.4127
Mean Anonmoly124.8308
Mean Motion1.00270179
Decay Rate-1.29E-06
L11 41893U 16079A 18323.10832187 -.00000129 00000-0 00000+0 0 9997
L22 41893 0.0155 292.7416 0001585 302.4127 124.8308 1.00270179 6994

Live tracking and technical data element details for ECHOSTAR 19 (NORAD 41893). ECHOSTAR 19 can be tracked NOW for your location showing map with azimuth and elevation plus other details from your city location.

Track the satellite on the map from your city or location and see movement details for azimuth, elevation, latitude, longitude, range, height, and movement on the map or in text.







IsCatalogInMostPopularTable: catalog: 41893, numindb: 154
Update: records affected: 1



GetName: 41893 ECHOSTAR 19

Hit Count: updated at: Wed, 21 Nov 2018 05:25:49 GMT